Tracking 30166 objects as of 22-Jan-2025
HD Live streaming from Space Station
objects crossing your sky now

SL-18 R/B

Track SL-18 R/B now!
10-day predictions


NORAD ID: 26703
Int'l Code: 2001-007B
Perigee: 555.1 km
Apogee: 566.7 km
Inclination: 97.7 °
Period: 95.7 minutes
Semi major axis: 6931 km
RCS: 2.4311 m2 (large)
Launch date: February 20, 2001
Source: Commonwealth of Independent States (former USSR) (CIS)
Launch site: Svobodny, Russia (SVOB)

Pakistan's microsatellite for development of surveillance capability.
Note: This is a ROCKET BODY
Your satellite tracking list
Your tracking list is empty




NASA's NSSDC Master Catalog

Two Line Element Set (TLE):
1 26703U 01007B   25021.93612548  .00005066  00000-0  36831-3 0  9995
2 26703  97.7069  36.2320 0008346 306.9631  53.0829 15.04259522584181
Source of the keplerian elements: AFSPC